| time (UTC) | temp F | wind direction | speed MPH | gust MPH | rain 1hr in | rain 24hr in | rain mn in | humidity % | barometer mb |
| 20260503221513 | 46 | 20 | 8.0 | 12.0 | 0.01 | 0.35 | 0.34 | 97 | 1012.9 |
| 20260503220012 | 46 | 33 | 5.0 | 12.0 | 0.02 | 0.35 | 0.34 | 97 | 1012.8 |
| 20260503214510 | 46 | 20 | 6.0 | 12.0 | 0.02 | 0.35 | 0.34 | 97 | 1012.6 |
| 20260503213011 | 46 | 28 | 8.0 | 14.0 | 0.02 | 0.35 | 0.33 | 97 | 1012.6 |
| 20260503211508 | 46 | 36 | 6.0 | 12.0 | 0.02 | 0.35 | 0.33 | 97 | 1012.5 |
| 20260503210008 | 47 | 45 | 7.0 | 13.0 | 0.01 | 0.34 | 0.32 | 97 | 1012.4 |
| 20260503204504 | 47 | 35 | 7.0 | 14.0 | 0.01 | 0.34 | 0.32 | 97 | 1012.3 |
| 20260503203002 | 47 | 40 | 8.0 | 15.0 | 0.00 | 0.33 | 0.31 | 97 | 1012.1 |
| 20260503201601 | 47 | 15 | 9.0 | 15.0 | 0.00 | 0.33 | 0.31 | 97 | 1012.0 |
| 20260503200058 | 47 | 20 | 10.0 | 15.0 | 0.00 | 0.33 | 0.31 | 97 | 1011.7 |
| 20260503194553 | 47 | 52 | 10.0 | 15.0 | 0.00 | 0.33 | 0.31 | 97 | 1011.6 |
| 20260503193107 | 47 | 5 | 6.0 | 14.0 | 0.00 | 0.33 | 0.31 | 97 | 1011.4 |
| 20260503191552 | 47 | 47 | 9.0 | 18.0 | 0.00 | 0.33 | 0.31 | 97 | 1011.3 |
| 20260503190059 | 48 | 44 | 10.0 | 15.0 | 0.00 | 0.33 | 0.31 | 97 | 1011.1 |
| 20260503184544 | 48 | 25 | 7.0 | 12.0 | 0.00 | 0.33 | 0.31 | 97 | 1010.9 |
| 20260503183056 | 48 | 34 | 9.0 | 13.0 | 0.00 | 0.33 | 0.31 | 97 | 1010.7 |
| 20260503181542 | 48 | 15 | 7.0 | 11.0 | 0.00 | 0.33 | 0.31 | 97 | 1010.6 |
| 20260503180051 | 48 | 26 | 6.0 | 12.0 | 0.00 | 0.33 | 0.31 | 97 | 1010.4 |
| 20260503174539 | 48 | 46 | 9.0 | 14.0 | 0.01 | 0.33 | 0.31 | 97 | 1010.3 |
| 20260503173056 | 49 | 25 | 10.0 | 14.0 | 0.01 | 0.33 | 0.31 | 97 | 1010.2 |
| 20260503171545 | 49 | 27 | 8.0 | 13.0 | 0.01 | 0.33 | 0.31 | 97 | 1010.2 |
| 20260503081524 | 49 | 68 | 9.0 | 18.0 | 0.03 | 0.28 | 0.27 | 96 | 1009.6 |
| 20260503071512 | 49 | 51 | 11.0 | 16.0 | 0.04 | 0.25 | 0.24 | 96 | 1009.4 |
| 20260503060108 | 49 | 63 | 9.0 | 16.0 | 0.05 | 0.20 | 0.18 | 96 | 1009.2 |
| 20260503054557 | 49 | 54 | 9.0 | 15.0 | 0.05 | 0.17 | 0.16 | 96 | 1009.4 |
| 20260503053056 | 49 | 27 | 7.0 | 12.0 | 0.06 | 0.16 | 0.14 | 96 | 1009.4 |
| 20260503051559 | 49 | 60 | 6.0 | 11.0 | 0.10 | 0.16 | 0.14 | 96 | 1009.3 |
| 20260503050052 | 49 | 37 | 7.0 | 10.0 | 0.10 | 0.15 | 0.13 | 95 | 1009.4 |
| 20260503044550 | 50 | 67 | 6.0 | 9.0 | 0.08 | 0.13 | 0.11 | 95 | 1009.6 |
| 20260503043051 | 50 | 50 | 6.0 | 9.0 | 0.06 | 0.09 | 0.08 | 95 | 1009.8 |
| 20260503041547 | 50 | 52 | 5.0 | 10.0 | 0.02 | 0.06 | 0.04 | 95 | 1009.7 |
| 20260503040048 | 50 | 63 | 7.0 | 11.0 | 0.02 | 0.05 | 0.03 | 95 | 1009.8 |
| 20260503034545 | 50 | 37 | 5.0 | 10.0 | 0.02 | 0.05 | 0.03 | 95 | 1009.8 |
| 20260503033046 | 50 | 53 | 6.0 | 13.0 | 0.01 | 0.04 | 0.02 | 95 | 1009.9 |
| 20260503031542 | 50 | 54 | 8.0 | 13.0 | 0.00 | 0.03 | 0.02 | 94 | 1009.7 |
| 20260503030042 | 50 | 54 | 5.0 | 11.0 | 0.01 | 0.03 | 0.02 | 94 | 1010.0 |
| 20260503024538 | 50 | 50 | 8.0 | 11.0 | 0.01 | 0.03 | 0.02 | 93 | 1009.9 |
| 20260503023033 | 50 | 51 | 5.0 | 9.0 | 0.01 | 0.03 | 0.02 | 93 | 1009.9 |
| 20260503021531 | 51 | 51 | 4.0 | 9.0 | 0.01 | 0.03 | 0.02 | 93 | 1009.8 |
| 20260503020030 | 51 | 47 | 4.0 | 8.0 | 0.00 | 0.02 | 0.01 | 92 | 1009.9 |
| 20260503014630 | 52 | 46 | 4.0 | 7.0 | 0.00 | 0.02 | 0.01 | 91 | 1009.9 |
| 20260503013032 | 52 | 58 | 2.0 | 7.0 | 0.00 | 0.02 | 0.01 | 91 | 1009.9 |
| 20260503011524 | 52 | 85 | 4.0 | 11.0 | 0.00 | 0.02 | 0.01 | 91 | 1010.0 |
| 20260503010021 | 52 | 63 | 3.0 | 8.0 | 0.01 | 0.02 | 0.01 | 90 | 1010.3 |
| 20260503004526 | 52 | 54 | 3.0 | 13.0 | 0.01 | 0.02 | 0.01 | 88 | 1010.4 |
| 20260503003015 | 52 | 114 | 6.0 | 10.0 | 0.02 | 0.02 | 0.01 | 89 | 1010.4 |
| 20260503001514 | 52 | 109 | 4.0 | 12.0 | 0.02 | 0.02 | 0.01 | 90 | 1010.7 |
| 20260503000011 | 52 | 136 | 5.0 | 13.0 | 0.01 | 0.02 | 0.02 | 90 | 1010.8 |
| 20260502234509 | 52 | 101 | 2.0 | 9.0 | 0.01 | 0.02 | 0.02 | 89 | 1011.4 |
| 20260502233010 | 52 | 154 | 6.0 | 11.0 | 0.01 | 0.01 | 0.01 | 89 | 1011.5 |
| 20260502231504 | 52 | 143 | 7.0 | 12.0 | 0.01 | 0.01 | 0.01 | 89 | 1011.7 |
| 20260502230002 | 52 | 160 | 6.0 | 13.0 | 0.01 | 0.01 | 0.01 | 89 | 1012.0 |
| 20260502224502 | 52 | 111 | 8.0 | 16.0 | 0.00 | 0.00 | 0.00 | 88 | 1012.2 |
| 20260502223059 | 53 | 126 | 5.0 | 14.0 | 0.00 | 0.00 | 0.00 | 86 | 1012.3 |